Regional Weather Roundup
Issued by NWS

Home | Current Version | Previous Version | Text Only | Print | Product List | Glossary On
Versions: 1 2 3 4 5 6 7 8 9 10 11 12 13 14 15 16 17 18 19 20 21 22 23 24 25 26 27 28 29 30 31 32 33 34 35 36 37 38 39 40 41 42 43 44 45 46 47 48 49 50
000
ASUS43 KMPX 190710
RWRMN
WEATHER ROUNDUP FOR MINNESOTA
NATIONAL WEATHER SERVICE TWIN CITIES/CHANHASSEN MN
200 AM CDT FRI SEP 19 2014


NOTE: "FAIR" INDICATES FEW OR NO CLOUDS BELOW 12,000 FEET WITH NO
SIGNIFICANT WEATHER AND/OR OBSTRUCTIONS TO VISIBILITY. N/A MEANS
CURRENT SKY AND/OR WEATHER CONDITIONS ARE NOT AVAILABLE.

MNZ060>063-068>070-190800-
   Twin Cities Metro

CITY           SKY/WX    TMP DP  RH WIND       PRES   REMARKS
TWIN CITIES    PTCLDY    59  52  77 SE13      29.99S
ST PAUL        PTCLDY    58  55  90 S13       30.00S
CRYSTAL        PTCLDY    61  52  72 S10       29.97R
BLAINE         PTCLDY    63  55  77 S10       29.97F
LAKEVILLE      PTCLDY    54  52  94 SE3       29.99F
EDEN PRAIRIE   PTCLDY    58  53  84 SE8       29.97S
SOUTH ST PAUL  PTCLDY    59  54  85 S6        29.99F
LAKE ELMO      FAIR      59  54  82 S9        30.00F
$$
MNZ001>005-007-008-013>017-022>024-027-028-190800-
   Northwest Minnesota

CITY           SKY/WX    TMP DP  RH WIND       PRES   REMARKS
BEMIDJI        CLOUDY    62  51  68 S13G21    29.80S
HALLOCK        CLOUDY    68  57  68 S18G26    29.60F
ROSEAU         CLOUDY    63  55  77 S16       29.65F
WARROAD        CLOUDY    63  55  77 S16G23    29.66S
THIEF RVR FALL CLOUDY    66  54  63 S18G28    29.68F
CROOKSTON      CLOUDY    66  55  68 S24G35    29.67F
FOSSTON        CLOUDY    63  52  67 S18G29    29.76F
DETROIT LAKES  CLOUDY    64  54  68 S10       29.83R
MOORHEAD       CLOUDY    64  57  77 S12G20    29.76F
PARK RAPIDS    CLOUDY    59  51  75 S13       29.84S
MAHNOMEN       DRIZZLE   63  54  72 S16G23    29.76F
$$
MNZ006-009>011-018-025>026-190800-
   North Central Minnesota

CITY           SKY/WX    TMP DP  RH WIND       PRES   REMARKS
BAUDETTE       MOCLDY    58  53  84 S13G18    29.71F
FLAG ISLAND    MOCLDY    61  55  82 S20       29.66S
INTL FALLS     CLOUDY    55  51  86 VRB6      29.80S
WASKISH        CLOUDY    59  55  88 S10G17    29.76F
BIG FORK       CLOUDY    55  52  88 S10       29.84F
LONGVILLE      CLOUDY    57  54  88 S9G16     29.85F
GRAND RAPIDS   CLOUDY    55  52  88 S16G23    29.87F
CRANE LAKE     CLOUDY    52  50  93 S7        29.87F
ORR            CLOUDY    54  48  82 S12G20    29.83F
COOK           CLOUDY    54  52  94 S7G20     29.88F
WALKER         FAIR      60  51  73 S9G17     29.82F
$$
MNZ012-019>021-037-190800-
   Northeast Minnesota

CITY           SKY/WX    TMP DP  RH WIND       PRES   REMARKS
DULUTH         MOCLDY    53  50  89 S15       29.95F
ELY            CLOUDY    52  48  87 S10G17    29.91F
HIBBING        CLOUDY    55  51  86 S8        29.91F
EVELETH        CLOUDY    52  50  93 S10       29.93S
DULUTH HARBOR  PTCLDY    52  48  87 E7        29.97F
TWO HARBORS    CLOUDY    46  41  81 E3        29.95F
SILVER BAY     PTCLDY    43  43 100 CALM      29.96F
GRAND MARAIS     N/A     49  44  83 NE3       30.00F
G MARAIS ARPRT CLOUDY    43  39  87 SE3       29.99F
$$
MNZ029>031-032-039>041-046>048-054>057-064-190800-
   West Central Minnesota

CITY           SKY/WX    TMP DP  RH WIND       PRES   REMARKS
FERGUS FALLS   CLOUDY    63  50  63 S18       29.82F
WHEATON        CLOUDY    59  54  82 SE10G20   29.82F
MORRIS         CLOUDY    61  54  77 S13       29.85R
ALEXANDRIA     MOCLDY    62  52  69 S18G24    29.89R
ELBOW LAKE     FAIR      60  53  76 S17       29.84S
WADENA         CLOUDY    59  50  72 S12       29.85S
GLENWOOD       PTCLDY    61  52  72 S15G24    29.89R
APPLETON       CLOUDY    63  54  72 S9        29.85S
BENSON         MOCLDY    61  54  77 S14       29.87S
ORTONVILLE     MOCLDY    61  54  77 SE8       29.83F
MADISON        MOCLDY    64  55  72 S12       29.85F
WILLMAR        FAIR      59  50  72 S10       29.91F
$$
MNZ033>034-036-042>043-049>051-058-059-190800-
   Central Minnesota

CITY           SKY/WX    TMP DP  RH WIND       PRES   REMARKS
ST CLOUD       MOCLDY    63  52  67 S13       29.93S
SAUK CENTRE    FAIR      58  49  72 S12G17    29.89F
PAYNESVILLE    PTCLDY    58  49  72 SE14G22   29.91F
AITKIN         CLOUDY    61  54  77 S8        29.89F
PINE RIVER     CLOUDY    59  52  77 S10G16    29.90F
BRAINERD       CLOUDY    57  51  80 S13       29.88F
STAPLES        CLOUDY    59  48  67 S10G20    29.87R
LONG PRAIRIE   FAIR      57  48  72 SE14      29.89S
LITTLE FALLS   CLOUDY    57  50  77 SE10      29.90F
LITCHFIELD     PTCLDY    61  52  72 S6        29.93F
BUFFALO        MOCLDY    60  52  73 SE8       29.96S
MAPLE LAKE     MOCLDY    60  55  81 S6        29.95S
$$
MNZ037-044-045-052-053-190800-
   East Central Minnesota

CITY           SKY/WX    TMP DP  RH WIND       PRES   REMARKS
PRINCETON      MOCLDY    59  54  82 SE6       29.96R
MORA           MOCLDY    55  52  88 S6        29.97S
CAMBRIDGE      MOCLDY    61  52  72 S7        29.95S
RUSH CITY      MOCLDY    56  54  91 S7        29.96F
MOOSE LAKE     MOCLDY    45  43  93 CALM      29.93F FOG
HINCKLEY       FAIR      57  55  94 S9        29.96S
CLOQUET        CLOUDY    48  46  93 SE3       29.95F VSB 1/2
MCGREGOR       CLOUDY    54  54 100 S8        29.92F
$$
MNZ071>073-080-081-089-090-097-098-190800-
   Southwest Minnesota

CITY           SKY/WX    TMP DP  RH WIND       PRES   REMARKS
MONTEVIDEO     CLOUDY    61  54  77 S9        29.88F
GRANITE FALLS  MOCLDY    60  53  78 S13G18    29.90F
CANBY          PTCLDY    62  53  72 S13G20    29.86F
MARSHALL       MOCLDY    61  52  72 S16       29.88F
REDWOOD FALLS  MOCLDY    59  52  77 S13       29.91F
OLIVIA         PTCLDY    57  50  77 S10       29.91F
PIPESTONE      MOCLDY    59  54  82 S17       29.90F
WINDOM         PTCLDY    61  55  82 S15G22    29.94F
WORTHINGTON    MOCLDY    57  54  88 S12G20    29.95F
JACKSON        PTCLDY    59  54  82 S13G21    29.96F
TRACY          MOCLDY    61  54  78 S17G23    29.90S
SLAYTON        MOCLDY    58  54  85 S16G23    29.93S
$$
MNZ065>067-074>077-082>085-091>093-190800-
   South Central Minnesota

CITY           SKY/WX    TMP DP  RH WIND       PRES   REMARKS
MANKATO        MOCLDY    57  48  72 S9        29.97F
NEW ULM        PTCLDY    55  54  94 S9        29.95S
ST JAMES       PTCLDY    61  54  77 SE10G17   29.96F
FAIRMONT       MOCLDY    57  48  72 S13       29.98R
GLENCOE        MOCLDY    61  51  69 S6        29.95S
FARIBAULT      PTCLDY    61  52  72 SE10      29.99F
OWATONNA       PTCLDY    57  52  82 S12G18    30.00F
WASECA         PTCLDY    55  48  76 SE7       30.01F
ALBERT LEA     PTCLDY    57  54  88 S10       30.01F
$$
MNZ078>079-086>088-094>096-190800-
   Southeast Minnesota

CITY           SKY/WX    TMP DP  RH WIND       PRES   REMARKS
ROCHESTER      CLEAR     56  51  84 S12       30.06R
RED WING       CLEAR     59  54  82 SE9       30.02S
STANTON        CLEAR     58  52  80 S9        29.99F
DODGE CENTER   CLEAR     55  52  88 S10       30.03F
WINONA         CLEAR     55  52  88 SE3       30.06S
AUSTIN         CLEAR     55  52  88 S7        30.04S
PRESTON        CLEAR     55  54  97 S12       30.07S
$$
ABBREVIATIONS USED IN REMARKS
   TC - TEMPERATURES IN CELSIUS
  WCI - WIND CHILL INDEX
   HX - HEAT INDEX
  VSB - VISIBILITY
$$


USA.gov is the U.S. government's official web portal to all federal, state and local government web resources and services.